{"data":{"norad_id":65951,"epoch":"2026-05-25T00:50:32.138880Z","epoch_age_seconds":71703,"freshness":"FRESH","line1":"1 65951U 25228E   26145.03509420  .00003362  00000+0  46928-3 0  9991","line2":"2 65951  51.9006  25.4647 0001124  97.4848 262.6242 14.79980706 34502","mean_motion":14.79980706,"eccentricity":0.0001124,"inclination_deg":51.9006,"raan_deg":25.4647,"arg_perigee_deg":97.4848,"mean_anomaly_deg":262.6242,"bstar":0.00046928,"rev_number":3450,"period_min":97.298565728735,"perigee_km":628.59739172289,"apogee_km":630.17268267685,"semimajor_km":7007.5220371999,"source":"CELESTRAK","updated_at":"2026-05-25T13:38:05.845174Z"}}